SCP
0 0 0 0 0 0 0 0 0 0 0 0 0 0 0 0 0 0 0 0 0 0 0 0 0 0 0 0 0 0 0 0 0 0 0 0 0 0 0 0 0 0 0
0 0 0 0 0 0 0 0 0 0 0 0 0 0 0 0 0 0 0 0 0 0 0 0 0 0 0 0 0 0 0 0 0 0 0 0 0 0 0 0 0 0 0
0 0 0 0 0 0 0 0 0 0 0 0 0 0 0 0 0 0 0 0 0 0 0 0 0 0 0 0 0 0 0 0 0 0 0 0 0 0 0 0 0 0 0
0 0 0 0 0 0 0 0 0 0 0 0 0 0 0 0 0 0 0 0 0 0 0 0 0 0 0 0 0 0 0 0 0 0 0 0 0 0 0 0 0 0 0
0 0 0 0 0 0 0 0 0 0 0 0 0 0 0 0 0 0 0 0 0 0 0 0 0 0 0 0 0 0 0 0 0 0 0 0 0 0 0 0 0 0 0
0 0 0 0 0 0 0 0 0 0 0 0 0 0 0 0 0 0 0 0 0 0 0 0 0 0 0 0 0 0 0 0 0 0 0 0 0 0 0 0 0 0 0
0 0 0 0 0 0 0 0 0 0 0 0 0 0 0 0 0 0 0 0 0 0 0 0 0 0 0 0 0 0 0 0 0 0 0 0 0 0 0 0 0 0 0
0 0 0 0 0 0 0 0 0 0 0 0 0 0 0 0 0 0 0 0 0 0 0 0 0 0 0 0 0 0 0 0 0 0 0 0 0 0 0 0 0 0 0
0 0 0 0 0 0 0 0 0 0 0 0 0 0 0 0 0 0 0 0 0 0 0 0 0 0 0 0 0 0 0 0 0 0 0 0 0 0 0 0 0 0 0
0 0 0 0 0 0 0 0 0 0 0 0 0 0 0 0 0 0 0 0 0 0 0 0 0 0 0 0 0 0 0 0 0 0 0 0 0 0 0 0 0 0 0
-0 -0 0 0 0 0 0 0 0 0 0 0 0 0 0 0 0 0 0 0 0 0 0 0 0 0 0 0 0 0 0 0 0 0 0 0 0 0 0 0 0 0 0
0 0 -0 0 0 0 0 0 0 0 0 0 0 0 0 0 0 0 0 0 0 0 0 0 0 0 0 0 0 0 0 0 0 0 0 -0 -0 -0 -0 0 0 0 0
0 0 0 0 0 0 0 0 0 0 0 0 0 0 0 0 0 0 0 0 0 0 0 0 0 0 0 0 0 0 0 0 0 0 0 0 0 -0 0 0 0 0 0
0 0 0 0 0 0 0 0 0 0 0 0 0 0 0 0 0 0 0 0 0 0 0 0 0 0 0 0 0 0 0 0 0 0 0 0 0 0 0 0 0 0 0
0 0 0 0 0 0 0 0 0 0 0 0 0 0 0 0 0 0 0 0 0 0 0 0 0 0 0 0 0 0 0 0 0 0 0 0 0 0 0 0 0 0 0
0 0 0 0 0 0 0 0 0 0 0 0 0 0 0 0 0 0 0 0 0 0 0 0 0 0 0 0 0 0 0 0 0 0 0 0 0 0 0 0 0 0 0
0 0 0 0 0 0 0 0 0 0 0 0 0 0 0 0 0 0 0 0 0 0 0 0 0 0 0 0 0 0 0 0 0 0 0 0 0 0 0 0 0 0 0
0 0 0 0 0 0 0 0 0 0 0 0 0 0 0 0 0 0 0 0 0 0 0 0 0 0 0 0 0 0 0 0 0 0 0 0 0 0 0 0 0 0 0
0 0 0 0 0 0 0 0 0 0 0 0 0 0 0 0 0 0 0 0 0 0 0 0 0 0 0 0 0 0 0 0 0 0 0 0 0 0 0 0 0 0 0
0 0 0 0 0 0 0 0 0 0 0 0 0 0 0 0 0 0 0 0 0 0 0 0 0 0 0 0 0 0 0 0 0 0 0 0 0 0 0 0 0 0 0
0 0 0 0 0 0 0 0 0 0 0 0 0 0 0 0 0 0 0 0 0 0 0 0 0 0 0 0 0 0 0 0 0 0 0 0 0 0 0 0 0 0 0
0 0 0 0 0 0 0 0 0 0 0 0 0 0 0 0 0 0 0 0 0 0 0 0 0 0 0 0 0 0 0 0 0 0 0 0 0 0 0 0 0 0 0
0 0 0 0 0 0 0 0 0 0 0 0 0 0 0 0 0 0 0 0 0 0 0 0 0 0 0 0 0 0 0 0 0 0 0 0 0 0 0 0 0 0 0
0 0 0 0 0 0 0 0 0 0 0 0 0 0 0 0 0 0 0 0 0 0 0 0 0 0 0 0 0 0 0 0 0 0 0 0 0 0 0 0 0 0 0
0 0 0 0 0 0 0 0 0 0 0 0 0 0 0 0 0 0 0 0 0 0 0 0 0 0 0 0 0 0 0 0 0 0 0 0 0 0 0 0 0 0 0
0 0 0 0 0 0 0 0 0 0 0 0 0 0 0 0 0 0 0 0 0 0 0 0 0 0 0 0 0 0 0 0 0 0 0 0 0 0 0 0 0 0 0
Wind_Speed
8 8 7 7 6 5 4 4 4 3 3 2 3 3 3 3 4 4 5 5 6 6 6 7 9 7 6 6 5 5 5 4 4 2 2 3 6 8 7 5 5 5 5
8 8 7 7 7 7 6 6 5 5 4 3 3 2 2 3 3 4 5 5 7 7 7 7 7 6 8 7 6 7 6 5 5 5 4 4 5 7 7 7 5 4 4
8 8 8 8 9 8 7 7 7 6 6 5 4 3 3 3 3 4 4 5 6 6 6 7 7 7 8 7 7 7 6 5 4 5 5 4 3 4 5 4 4 3 4
8 8 8 8 8 7 7 7 7 7 6 6 5 4 4 3 3 3 4 4 4 5 6 6 7 8 8 7 7 8 7 6 5 5 4 4 3 4 5 5 4 3 3
7 8 8 7 7 7 7 7 7 7 7 6 6 6 5 4 4 5 4 4 4 5 5 5 6 8 9 8 7 8 8 7 6 6 5 5 5 6 8 6 5 4 2
7 7 7 7 7 8 8 7 7 7 6 6 6 6 6 5 9 10 7 5 4 5 5 5 5 7 8 10 11 12 12 10 9 8 6 8 8 7 6 6 6 5 4
7 7 8 8 8 8 8 8 8 7 7 7 6 6 6 7 11 11 10 6 5 4 4 4 4 4 6 5 8 11 12 14 13 10 9 9 9 9 10 8 7 5 4
6 7 7 7 7 7 7 7 7 6 6 6 6 6 6 8 12 12 11 6 5 5 4 4 5 5 5 5 5 6 6 7 8 7 7 7 7 9 10 9 8 6 4
7 7 7 7 7 7 7 7 6 6 6 6 6 7 7 8 12 12 11 4 4 5 5 5 5 5 7 7 5 6 5 4 5 7 7 8 10 13 12 8 8 6 4
7 7 7 6 6 7 7 6 5 5 6 6 7 6 6 7 11 13 11 4 5 5 4 4 7 7 8 8 5 6 7 5 5 5 5 7 8 11 16 10 9 7 4
6 6 6 6 6 6 6 5 6 6 6 6 7 7 6 8 11 13 12 5 4 5 5 4 4 9 9 9 8 6 7 6 5 6 5 5 5 5 6 5 6 7 6
6 6 7 7 6 6 6 6 6 6 6 6 6 7 5 6 9 11 14 12 10 6 5 4 5 10 10 9 7 7 8 7 4 5 5 5 6 5 5 5 5 4 3
6 7 7 7 6 6 6 7 6 5 5 6 6 7 7 5 6 13 14 15 14 8 5 8 10 10 9 6 7 8 7 5 5 5 6 5 5 6 6 5 5 6 6
6 7 6 6 7 6 6 5 6 6 6 7 7 8 8 7 6 5 6 7 10 8 5 8 10 9 7 6 6 5 4 5 6 6 5 5 5 6 6 5 5 5 4
7 6 7 6 6 6 6 6 7 6 7 9 7 7 8 8 10 15 11 7 6 7 7 4 3 3 3 3 2 3 3 4 5 4 6 6 6 6 5 5 5 5 4
7 7 6 6 6 6 7 8 11 12 15 16 15 14 10 14 19 19 18 18 17 15 9 4 4 4 4 4 4 3 3 4 5 5 6 6 7 8 7 6 5 5 5
6 7 6 6 7 7 7 8 9 11 13 15 15 17 16 18 18 18 17 17 16 14 6 4 4 4 4 4 4 4 4 4 4 5 6 6 7 7 7 7 7 6 5
6 8 8 6 7 7 7 8 8 9 10 8 11 15 17 17 17 17 16 13 8 6 4 4 4 4 4 4 4 4 3 3 4 5 5 6 7 7 8 8 7 7 6
6 6 6 7 7 7 7 8 8 9 9 9 8 10 14 15 16 15 12 6 6 5 5 4 4 4 3 3 3 3 4 4 5 5 5 7 7 7 7 7 7 11 8
6 11 10 8 7 7 7 7 8 8 9 8 8 8 8 9 7 7 6 5 5 5 5 5 4 4 4 3 3 3 4 4 5 5 5 6 7 7 8 9 8 8 7
6 8 12 9 7 7 7 8 8 8 9 9 8 10 15 9 8 8 7 6 6 6 5 5 5 4 4 3 3 4 4 4 4 5 5 6 6 6 7 7 8 8 7
5 6 7 7 7 7 8 8 8 8 9 10 9 10 15 8 7 7 7 6 6 5 5 5 5 4 4 3 4 4 4 4 4 5 5 5 6 7 7 7 7 7 8
5 7 7 7 7 10 10 8 8 8 9 9 9 9 8 7 7 7 7 6 6 5 5 5 5 4 4 3 4 4 5 5 4 5 5 6 6 6 7 7 9 9 9
5 6 7 7 7 7 8 8 8 8 9 9 8 8 8 8 8 8 7 6 6 5 5 4 5 5 6 4 3 3 4 4 4 5 7 7 7 6 7 7 8 10 9
4 6 7 7 7 8 8 8 8 8 9 8 8 8 8 8 8 7 7 6 6 5 6 5 4 4 5 5 5 4 5 6 5 4 5 6 7 7 7 8 8 9 8
5 6 6 6 7 7 7 8 8 8 8 8 8 8 8 8 8 7 7 6 6 6 5 5 5 5 5 4 4 5 5 6 6 6 5 5 6 6 7 7 9 8 9
Wind_Direction
21 23 22 14 9 11 11 0 350 339 327 303 280 259 246 235 231 230 231 220 221 222 216 211 214 205 206 206 200 199 202 196 210 185 155 158 173 178 172 170 172 170 174
17 20 19 14 13 14 7 0 357 351 345 330 310 291 267 259 246 236 235 228 224 223 219 216 216 208 211 206 203 206 206 198 188 188 176 173 188 185 173 171 173 175 172
16 19 17 15 14 11 3 358 358 357 356 354 339 318 305 285 268 257 245 239 235 230 223 219 216 210 218 212 204 205 205 198 185 178 179 170 166 170 166 166 170 173 176
15 18 17 11 7 3 360 0 0 359 358 356 349 343 330 317 306 293 276 254 249 243 231 226 218 213 218 215 210 205 198 192 184 177 172 165 163 163 167 169 178 182 179
12 14 9 2 360 359 359 358 358 359 355 351 351 351 346 336 327 316 295 275 255 249 245 236 230 225 222 217 214 203 195 195 189 190 184 173 176 174 187 173 181 162 177
10 7 360 359 0 359 355 356 357 355 351 350 349 344 340 335 333 330 318 293 275 257 252 248 241 231 228 228 225 214 202 197 196 197 195 194 191 184 171 169 161 162 195
5 2 359 358 359 354 350 353 350 344 344 343 338 335 327 323 330 327 321 310 289 273 260 253 252 243 237 228 231 226 217 212 202 195 198 198 186 181 171 172 177 174 178
357 355 352 352 351 346 347 345 338 333 332 329 327 322 317 318 326 327 325 314 295 283 270 259 252 246 236 226 219 215 214 212 206 199 200 197 184 176 177 175 166 135 95
349 345 342 341 340 341 340 334 327 326 325 323 320 319 315 313 320 323 323 304 294 287 280 272 263 250 247 240 221 211 211 213 205 196 189 183 177 176 165 145 149 154 161
333 329 329 331 331 329 324 319 318 319 317 318 316 314 309 306 315 321 322 303 297 292 284 271 267 263 255 246 231 215 211 207 181 174 171 170 169 176 176 172 166 163 150
321 323 326 326 321 317 316 317 318 317 317 316 311 309 306 308 315 318 319 310 294 291 283 278 267 266 260 252 245 231 225 201 182 172 163 156 152 159 168 167 165 161 157
323 323 321 319 317 322 318 316 316 316 315 313 311 310 305 307 313 315 316 310 305 289 280 273 270 272 266 260 255 239 223 197 166 164 167 171 170 169 161 152 141 122 118
324 320 315 315 314 314 313 313 315 314 313 314 314 312 311 308 307 312 313 312 307 298 281 280 279 274 272 258 247 239 218 193 172 178 185 184 172 157 143 128 112 103 83
320 316 314 315 314 313 310 307 308 310 309 308 309 308 308 306 301 300 298 302 303 297 286 278 279 273 271 264 250 235 212 196 188 188 180 162 146 147 153 148 145 142 125
318 314 316 314 311 312 310 304 303 288 290 300 298 296 299 300 299 303 303 297 293 286 290 275 264 262 253 247 238 232 205 189 191 169 164 162 162 160 158 152 145 149 151
321 320 317 313 313 313 312 311 308 307 308 305 302 300 294 293 300 304 305 301 299 294 291 271 265 254 247 242 233 231 219 199 187 174 172 172 171 169 163 158 154 159 158
314 314 311 314 315 315 314 314 314 315 312 309 308 308 305 305 305 305 305 304 300 296 284 268 260 254 251 242 234 227 227 209 186 179 178 175 171 169 166 168 166 162 159
310 311 312 307 308 309 309 307 307 310 313 311 311 311 312 311 310 309 309 308 299 292 274 270 265 257 250 246 239 230 219 204 191 185 178 175 171 170 171 172 172 169 162
312 309 309 307 307 308 307 306 305 305 305 306 308 310 316 314 311 310 312 300 292 288 282 275 268 259 254 250 243 229 216 210 199 191 186 180 174 171 175 174 173 175 166
307 313 317 312 310 309 307 306 307 307 306 306 307 309 314 313 308 309 308 298 292 290 286 279 272 264 254 244 242 229 217 210 200 194 189 183 177 175 176 174 174 174 175
306 311 317 314 307 306 306 305 305 305 305 305 304 305 312 311 307 306 304 299 294 293 290 284 274 263 254 243 235 234 225 215 203 195 189 183 177 176 176 174 173 171 165
305 306 307 306 306 305 304 304 305 303 304 304 305 308 314 311 303 301 300 297 292 289 288 284 277 266 252 244 234 229 230 220 204 192 189 182 176 175 173 171 168 167 166
306 308 307 305 304 307 310 307 305 305 304 305 306 308 310 308 304 302 301 299 297 294 289 283 279 273 261 250 242 229 224 222 208 192 186 181 177 176 175 173 171 169 170
311 309 307 307 307 306 306 307 308 308 309 309 310 310 311 311 309 307 306 302 299 295 291 286 280 274 267 260 251 239 231 222 206 197 188 180 178 177 175 172 171 172 170
312 311 309 307 307 307 308 308 308 310 311 311 312 312 311 310 310 310 310 309 307 303 302 298 289 281 272 264 258 248 236 222 211 192 182 176 174 174 171 169 168 166 167
311 308 307 306 306 306 308 309 309 310 310 310 310 309 309 309 309 310 312 313 314 312 308 304 302 295 282 271 262 254 238 222 207 192 177 171 169 169 166 164 164 165 164